sat.trackr.live / text

‹ back to catalog

IRIDIUM 132

NORAD 42961 · 2017-061G

PAYLOAD ACTIVE UNKNOWN

§ Identity

Operator
Country
US
Launch date
2017-10-09
Launch site
AFWTR
Launch vehicle
Mass (kg)
RCS (m²)

Purposes: comms

External: N2YO · Heavens-Above · Gunter

§ Orbital elements

Epoch: 2026-05-25T03:04:58.312416Z

Period
100.40 min
Inclination
86.3990°
Eccentricity
0.0002267
Mean motion
14.34217353 rev/d
Perigee alt
776.0 km
Apogee alt
779.3 km
Semi-major
7,155.8 km
B*
4.5084e-5
RAAN
34.8888°
Arg perigee
84.8400°
Mean anomaly
275.3054°
Rev number
45,151

§ Raw data

IRIDIUM 1321 42961U 17061G   26145.12845269  .00000146  00000+0  45084-4 0  99972 42961  86.3990  34.8888 0002267  84.8400 275.3054 14.34217353451514

JSON: /api/v1/satellites/42961 · /tle

For live sub-satellite position, see the globe view (requires WebGL).

§ Visibility from observer

Set your observer location to see the next 7 days of passes ≥ 10°. The values pass through the URL so the page stays shareable.

No JS? Fill the form by hand. The geolocation button needs JavaScript.